Погода в Савватии

Россия / Архангельская область     60°59′31″N   46°47′27″E
темп.,
°C
ветер,
м/с
пор.,
м/с
влажн.,
%
обл.,
%
осадки,
мм/ч
давл.,
гПа
погр.,
м
6 марта, сб
сб600:00−18зсз229879 0.0 100751
03:00−20зсз239982 0.1 100946
06:00−19зсз259889 0.1 1009138
09:00−18зсз249490 0.1 1010277
12:00−15зсз248797 0.1 1010658
15:00−13з258699 0.1 1010722
18:00−16юз2296100 0.1 100929
21:00−18ююз239894 0.1 100946
7 марта, вс
вс700:00−19ююз239976 0.1 100755
03:00−20ю2310085 0.1 100677
06:00−20ююв369994 0.0 1005121
09:00−16ююв379486 0.0 1004259
12:00−11ююв479199 0.0 1002379
15:00−10юв488999 0.0 1001531
18:00−11юв41091100 0.0 1000566
21:00−11вюв41092100 0.1 1000492
8 марта, пн
пн800:00−12вюв4993100 0.3 999401
03:00−14в4994100 0.4 999358
06:00−15всв4993100 0.4 999415
09:00−14всв4992100 0.6 999410
12:00−12св4891100 0.3 999519
15:00−12св5992100 0.5 1000585
18:00−14ссв4993100 0.3 1002609
21:00−16ссв4994100 0.6 1004522
9 марта, вт
вт900:00−17с3895100 0.1 1005408
03:00−20с4897100 0.1 1007334
06:00−23с3797100 0.0 1008283
09:00−24с3696100 0.1 1010276
12:00−20с369394 0.0 1011400
15:00−18ссз369097 0.0 1012562
18:00−22ссз3898100 0.0 1014199
21:00−24с2699100 0.1 1016150
10 марта, ср
ср1000:00−29с239926 0.0 101731
03:00−31с229945 0.0 101830
06:00−32с229966 0.0 101824
09:00−27ссз239444 0.0 1019197
12:00−21ссз238553 0.0 1018375
15:00−18сз238128 0.0 1017431
18:00−23зсз11920 0.0 101720
21:00−24з229519 0.0 101720